Weather History for KDET - June, 2013

Change the Weather History Date:

Sunday, June 9, 2013

  Actual Average Record
Temperature  
Mean Temperature 65 °F -  
Max Temperature 75 °F 78 °F 93 °F (1968)
Min Temperature 57 °F 58 °F 38 °F (1969)
Growing Degree Days 15 (Base 50)    
Moisture  
Dew Point 53 °F    
Average Humidity 64    
Maximum Humidity 87    
Minimum Humidity 51    
Precipitation  
Precipitation 0.00 in - - ()
Sea Level Pressure  
Sea Level Pressure 30.08 in    
Wind  
Wind Speed 7 mph (East)    
Max Wind Speed 16 mph    
Max Gust Speed 23 mph    
Visibility 10 miles    
Events      
Averages and records for this station are not official NWS values.
T = Trace of Precipitation, MM = Missing Value Source: NWS Daily Summary

Daily Weather History Graph

Daily Weather History Graph

Search for Another Location

Airport or City:

Trip Planner

Search our weather history database for the weather conditions in past years. The results will help you decide how hot, cold, wet, or windy it might be!

Date:

Astronomy

Jun. 09, 2013 Rise Set
Actual Time 5:54 AM EDT 9:08 PM EDT
Civil Twilight 5:20 AM EDT 9:42 PM EDT
Nautical Twilight 4:35 AM EDT 10:27 PM EDT
Astronomical Twilight 3:42 AM EDT 11:21 PM EDT
Moon 6:51 AM EDT (6/9) 9:52 PM EDT (6/9)
Length of Visible Light 16h 22m
Length of Day
15h 13m
New Moon, 1% of the Moon is Illuminated
Jun 9
New Moon
Jun 16
First Quarter
Jun 23
Full
Jun 30
Last Quarter
Jul 8
New

Hourly Weather History & Observations

Time (EDT) Temp. Dew Point Humidity Pressure Visibility Wind Dir Wind Speed Gust Speed Precip Events Conditions
12:53 AM 60.1 °F 53.1 °F 78% 30.10 in 10.0 mi NE 3.5 mph - N/A   Scattered Clouds
1:53 AM 57.9 °F 53.1 °F 84% 30.10 in 9.0 mi East 3.5 mph - N/A   Clear
2:53 AM 57.9 °F 53.1 °F 84% 30.10 in 10.0 mi ESE 3.5 mph - N/A   Clear
3:53 AM 57.9 °F 53.1 °F 84% 30.11 in 10.0 mi Calm Calm - N/A   Overcast
4:53 AM 59.0 °F 52.0 °F 78% 30.11 in 10.0 mi Calm Calm - N/A   Overcast
5:53 AM 57.9 °F 53.1 °F 84% 30.12 in 10.0 mi ENE 3.5 mph - N/A   Overcast
6:53 AM 57.9 °F 54.0 °F 87% 30.12 in 10.0 mi ENE 3.5 mph - N/A   Clear
7:53 AM 63.0 °F 54.0 °F 72% 30.13 in 10.0 mi ESE 5.8 mph - N/A   Mostly Cloudy
8:53 AM 66.9 °F 54.0 °F 63% 30.14 in 10.0 mi ESE 8.1 mph - N/A   Partly Cloudy
9:53 AM 69.1 °F 53.1 °F 57% 30.13 in 10.0 mi ESE 11.5 mph - N/A   Partly Cloudy
10:53 AM 70.0 °F 55.0 °F 59% 30.12 in 10.0 mi ESE 11.5 mph - N/A   Clear
11:53 AM 72.0 °F 55.0 °F 55% 30.12 in 10.0 mi ESE 12.7 mph - N/A   Overcast
12:53 PM 73.0 °F 54.0 °F 51% 30.11 in 10.0 mi ESE 16.1 mph - N/A   Scattered Clouds
1:53 PM 72.0 °F 53.1 °F 51% 30.10 in 10.0 mi ESE 11.5 mph 19.6 mph N/A   Mostly Cloudy
2:53 PM 72.0 °F 55.0 °F 55% 30.08 in 10.0 mi East 10.4 mph - N/A   Mostly Cloudy
3:53 PM 70.0 °F 53.1 °F 55% 30.07 in 10.0 mi ESE 10.4 mph - N/A   Overcast
4:53 PM 73.0 °F 55.9 °F 55% 30.04 in 10.0 mi East 12.7 mph - N/A   Clear
5:53 PM 73.9 °F 55.0 °F 52% 30.03 in 10.0 mi East 10.4 mph 20.7 mph N/A   Mostly Cloudy
6:53 PM 72.0 °F 55.0 °F 55% 30.02 in 10.0 mi East 11.5 mph 23.0 mph N/A   Partly Cloudy
7:53 PM 71.1 °F 53.1 °F 53% 30.01 in 10.0 mi East 11.5 mph - N/A   Partly Cloudy
8:53 PM 69.1 °F 52.0 °F 54% 30.00 in 10.0 mi East 12.7 mph 21.9 mph N/A   Clear
9:53 PM 66.9 °F 50.0 °F 54% 30.00 in 10.0 mi ESE 9.2 mph - N/A   Mostly Cloudy
10:53 PM 66.0 °F 52.0 °F 60% 30.00 in 10.0 mi ESE 12.7 mph 21.9 mph N/A   Scattered Clouds
11:53 PM 66.0 °F 52.0 °F 60% 29.97 in 10.0 mi ESE 12.7 mph 20.7 mph N/A   Partly Cloudy